TimeCEST,TemperatureF,Dew PointF,Humidity,Sea Level PressureIn,VisibilityMPH,Wind Direction,Wind SpeedMPH,Gust SpeedMPH,PrecipitationIn,Events,Conditions,WindDirDegrees,DateUTC
12:00 AM,51.8,46.4,82,30.21,-9999.0,Variable,2.3,-,N/A,,Clear,0,2011-10-01 22:00:00
12:30 AM,51.8,44.6,76,30.21,-9999.0,Calm,Calm,-,N/A,,Clear,0,2011-10-01 22:30:00
1:00 AM,53.6,44.6,72,30.21,-9999.0,Variable,3.5,-,N/A,,Clear,0,2011-10-01 23:00:00
1:30 AM,53.6,44.6,72,30.21,-9999.0,Variable,3.5,-,N/A,,Clear,0,2011-10-01 23:30:00
2:00 AM,51.8,44.6,76,30.21,-9999.0,NNW,4.6,-,N/A,,Clear,330,2011-10-02 00:00:00
2:30 AM,55.4,44.6,67,30.21,-9999.0,NNW,5.8,-,N/A,,Clear,330,2011-10-02 00:30:00
3:00 AM,51.8,44.6,76,30.24,-9999.0,NNW,5.8,-,N/A,,Clear,330,2011-10-02 01:00:00
3:30 AM,51.8,44.6,76,30.24,-9999.0,NNW,4.6,-,N/A,,Clear,330,2011-10-02 01:30:00
4:00 AM,53.6,44.6,72,30.21,-9999.0,NNW,5.8,-,N/A,,Clear,340,2011-10-02 02:00:00
4:30 AM,51.8,44.6,76,30.21,-9999.0,NNW,5.8,-,N/A,,Clear,340,2011-10-02 02:30:00
5:00 AM,50.0,42.8,76,30.21,-9999.0,North,5.8,-,N/A,,Clear,350,2011-10-02 03:00:00
5:30 AM,50.0,44.6,82,30.21,-9999.0,NNW,4.6,-,N/A,,Clear,340,2011-10-02 03:30:00
6:00 AM,50.0,42.8,76,30.24,-9999.0,Variable,3.5,-,N/A,,Clear,0,2011-10-02 04:00:00
6:30 AM,51.8,44.6,76,30.24,-9999.0,Variable,3.5,-,N/A,,Clear,0,2011-10-02 04:30:00
7:00 AM,48.2,42.8,82,30.24,-9999.0,NNW,5.8,-,N/A,,Clear,340,2011-10-02 05:00:00
7:30 AM,51.8,46.4,82,30.24,-9999.0,Variable,3.5,-,N/A,,Clear,0,2011-10-02 05:30:00
8:00 AM,57.2,46.4,67,30.24,-9999.0,NNW,4.6,-,N/A,,Clear,330,2011-10-02 06:00:00
8:30 AM,60.8,46.4,59,30.24,-9999.0,NNW,4.6,-,N/A,,Clear,330,2011-10-02 06:30:00
9:00 AM,64.4,46.4,52,30.24,-9999.0,NNW,5.8,-,N/A,,Clear,330,2011-10-02 07:00:00
9:30 AM,66.2,46.4,49,30.24,-9999.0,NNW,4.6,-,N/A,,Clear,340,2011-10-02 07:30:00
10:00 AM,69.8,48.2,46,30.24,-9999.0,NE,4.6,-,N/A,,Clear,50,2011-10-02 08:00:00
10:30 AM,71.6,48.2,43,30.24,-9999.0,NNW,4.6,-,N/A,,Clear,330,2011-10-02 08:30:00
11:00 AM,73.4,46.4,38,30.24,-9999.0,NW,6.9,-,N/A,,Clear,310,2011-10-02 09:00:00
11:30 AM,73.4,48.2,41,30.24,-9999.0,WNW,9.2,-,N/A,,Clear,290,2011-10-02 09:30:00
12:00 PM,71.6,48.2,43,30.24,-9999.0,West,6.9,-,N/A,,Clear,270,2011-10-02 10:00:00
12:30 PM,73.4,48.2,41,30.24,-9999.0,West,6.9,-,N/A,,Clear,270,2011-10-02 10:30:00
1:00 PM,75.2,48.2,38,30.21,-9999.0,West,11.5,-,N/A,,Clear,270,2011-10-02 11:00:00
1:30 PM,75.2,50.0,41,30.21,-9999.0,West,11.5,-,N/A,,Clear,260,2011-10-02 11:30:00
2:00 PM,75.2,50.0,41,30.21,-9999.0,West,9.2,-,N/A,,Clear,280,2011-10-02 12:00:00
2:30 PM,77.0,50.0,39,30.18,-9999.0,West,9.2,-,N/A,,Clear,260,2011-10-02 12:30:00
3:00 PM,77.0,48.2,36,30.18,-9999.0,WSW,10.4,-,N/A,,Clear,250,2011-10-02 13:00:00
3:30 PM,77.0,48.2,36,30.18,-9999.0,West,9.2,-,N/A,,Clear,260,2011-10-02 13:30:00
4:00 PM,77.0,48.2,36,30.18,-9999.0,WSW,8.1,-,N/A,,Clear,250,2011-10-02 14:00:00
4:30 PM,77.0,48.2,36,30.18,-9999.0,West,9.2,-,N/A,,Clear,260,2011-10-02 14:30:00
5:00 PM,77.0,48.2,36,30.18,-9999.0,West,6.9,-,N/A,,Clear,280,2011-10-02 15:00:00
5:30 PM,75.2,50.0,41,30.18,-9999.0,NW,8.1,-,N/A,,Clear,320,2011-10-02 15:30:00
6:00 PM,71.6,48.2,43,30.18,-9999.0,NW,5.8,-,N/A,,Clear,310,2011-10-02 16:00:00
6:30 PM,69.8,48.2,46,30.18,-9999.0,Variable,3.5,-,N/A,,Clear,0,2011-10-02 16:30:00
7:00 PM,66.2,48.2,52,30.18,-9999.0,Calm,Calm,-,N/A,,Clear,0,2011-10-02 17:00:00
7:30 PM,60.8,48.2,63,30.18,-9999.0,Calm,Calm,-,N/A,,Clear,0,2011-10-02 17:30:00
8:00 PM,57.2,48.2,72,30.18,-9999.0,Calm,Calm,-,N/A,,Clear,0,2011-10-02 18:00:00
8:30 PM,55.4,46.4,72,30.18,-9999.0,Variable,2.3,-,N/A,,Clear,0,2011-10-02 18:30:00
9:00 PM,55.4,46.4,72,30.18,-9999.0,Variable,1.2,-,N/A,,Clear,0,2011-10-02 19:00:00
9:30 PM,51.8,46.4,82,30.18,-9999.0,Variable,3.5,-,N/A,,Clear,0,2011-10-02 19:30:00
10:00 PM,62.6,48.2,59,30.21,-9999.0,East,12.7,-,N/A,,Clear,80,2011-10-02 20:00:00
10:30 PM,62.6,46.4,55,30.21,-9999.0,East,12.7,-,N/A,,Clear,100,2011-10-02 20:30:00
11:00 PM,60.8,44.6,55,30.21,-9999.0,ESE,12.7,-,N/A,,Clear,110,2011-10-02 21:00:00
11:30 PM,60.8,44.6,55,30.21,-9999.0,ESE,11.5,-,N/A,,Clear,110,2011-10-02 21:30:00